DW0345 Weather Reports


Display with metric or nautical units.
time (UTC)temp
F
wind
direction
speed
MPH
gust
MPH
rain 1hr
in
rain 24hr
in
rain mn
in
humidity
%
barometer
mb
20260502164254 60 83 1.0 4.0 0.00 0.00 0.00 85
20260502163735 60 104 2.0 3.0 0.00 0.00 0.00 85
20260502163309 59 141 2.0 3.0 0.00 0.00 0.00 85
20260502162747 59 56 0.0 3.0 0.00 0.00 0.00 86
20260502162229 59 63 1.0 3.0 0.00 0.00 0.00 86
20260502161730 59 8 1.0 3.0 0.00 0.00 0.00 86
20260502161229 58 145 0.0 3.0 0.00 0.00 0.00 86
20260502160726 58 141 0.0 5.0 0.00 0.00 0.00 86
20260502160243 58 195 3.0 4.0 0.00 0.00 0.00 86
20260502152229 58 104 3.0 7.0 0.00 0.00 0.00 86
20260502151729 57 92 3.0 4.0 0.00 0.00 0.00 86
20260502151250 57 56 2.0 4.0 0.00 0.00 0.00 87
20260502150729 57 359 0.0 5.0 0.00 0.00 0.00 87
20260502150246 57 20 2.0 6.0 0.00 0.00 0.00 87
20260502130726 54 322 0.0 0.0 0.00 0.00 0.00 85
20260502130227 54 322 0.0 0.0 0.00 0.00 0.00 85
20260502123727 54 322 0.0 0.0 0.00 0.00 0.00 85
20260502123243 54 322 0.0 0.0 0.00 0.00 0.00 85
20260502122804 54 322 0.0 0.0 0.00 0.00 0.00 85
20260502122229 54 322 0.0 0.0 0.00 0.00 0.00 85
20260502121729 54 322 0.0 0.0 0.00 0.00 0.00 85
20260502121227 54 322 0.0 0.0 0.00 0.00 0.00 84
20260502120727 55 322 0.0 0.0 0.00 0.00 0.00 84
20260502120250 55 322 0.0 0.0 0.00 0.00 0.00 84
20260502115750 55 322 0.0 0.0 0.00 0.00 0.00 84
20260502115229 55 322 0.0 0.0 0.00 0.00 0.00 84
20260502114750 55 322 0.0 0.0 0.00 0.00 0.00 84
20260502114225 55 322 0.0 0.0 0.00 0.00 0.00 84
20260502113726 55 322 0.0 0.0 0.00 0.00 0.00 84
20260502113226 55 322 0.0 0.0 0.00 0.00 0.00 84
20260502112728 55 322 0.0 0.0 0.00 0.00 0.00 84
20260502112236 55 322 0.0 0.0 0.00 0.00 0.00 84
20260502111738 55 322 0.0 0.0 0.00 0.00 0.00 84
20260502111244 55 322 0.0 0.0 0.00 0.00 0.00 84
20260502110725 55 322 0.0 0.0 0.00 0.00 0.00 83
20260502110224 55 322 0.0 0.0 0.00 0.00 0.00 84
20260502105725 55 322 0.0 0.0 0.00 0.00 0.00 83
20260502105234 55 322 0.0 0.0 0.00 0.00 0.00 83
20260502104736 55 322 0.0 0.0 0.00 0.00 0.00 83
20260502104236 55 322 0.0 0.0 0.00 0.00 0.00 83
20260502103736 55 322 0.0 0.0 0.00 0.00 0.00 83
20260502103235 55 322 0.0 0.0 0.00 0.00 0.00 83
20260502102734 56 322 0.0 0.0 0.00 0.00 0.00 83
20260502102306 56 322 0.0 0.0 0.00 0.00 0.00 82
20260502101743 56 322 0.0 0.0 0.00 0.00 0.00 82
20260502101308 56 322 0.0 0.0 0.00 0.00 0.00 82
20260502100727 56 322 0.0 0.0 0.00 0.00 0.00 82
20260502100231 56 322 0.0 0.0 0.00 0.00 0.00 82
20260502091232 57 322 0.0 2.0 0.00 0.00 0.00 81
20260502090731 57 322 0.0 2.0 0.00 0.00 0.00 81
20260502090228 57 322 1.0 2.0 0.00 0.00 0.00 81
20260502071235 61 146 0.0 3.0 0.00 0.00 0.00 80
20260502070733 61 146 1.0 3.0 0.00 0.00 0.00 79
20260502070309 61 113 0.0 0.0 0.00 0.00 0.00 79
20260502065728 61 112 0.0 0.0 0.00 0.00 0.00 79
20260502065229 61 112 0.0 0.0 0.00 0.00 0.00 79
20260502064731 61 83 0.0 0.0 0.00 0.00 0.00 79
20260502064234 61 83 0.0 0.0 0.00 0.00 0.00 78
20260502063734 61 83 0.0 0.0 0.00 0.00 0.00 78
20260502063305 61 58 0.0 3.0 0.00 0.00 0.00 78
20260502062746 62 87 0.0 3.0 0.00 0.00 0.00 78
20260502062249 62 87 1.0 3.0 0.00 0.00 0.00 77
20260502061751 62 124 1.0 4.0 0.00 0.00 0.00 77
20260502061251 62 119 2.0 4.0 0.00 0.00 0.00 77
20260502060752 62 83 2.0 4.0 0.00 0.00 0.00 77
20260502060225 62 110 2.0 4.0 0.00 0.00 0.00 77
20260502055743 62 76 2.0 4.0 0.00 0.00 0.00 77
20260502055226 63 91 3.0 5.0 0.00 0.00 0.00 76
20260502054749 63 82 2.0 4.0 0.00 0.00 0.00 76
20260502054255 63 112 2.0 4.0 0.00 0.00 0.00 76
20260502053734 63 97 2.0 4.0 0.00 0.00 0.00 75
20260502053252 63 129 3.0 5.0 0.00 0.00 0.00 75
20260502052732 63 115 2.0 5.0 0.00 0.00 0.00 75
20260502052245 63 102 1.0 3.0 0.00 0.00 0.00 75
20260502051746 62 166 1.0 3.0 0.00 0.00 0.00 74
20260502051228 62 281 0.0 0.0 0.00 0.00 0.00 73
20260502050732 62 281 0.0 0.0 0.00 0.00 0.00 73
20260502050304 62 281 0.0 1.0 0.00 0.00 0.00 73
20260502045724 62 281 0.0 2.0 0.00 0.00 0.00 72
20260502045243 63 281 0.0 2.0 0.00 0.00 0.00 72
20260502044746 63 281 0.0 2.0 0.00 0.00 0.00 72
20260502044231 63 281 1.0 4.0 0.00 0.00 0.00 71
20260502043730 64 301 2.0 4.0 0.00 0.00 0.00 71
20260502043250 64 322 2.0 4.0 0.00 0.00 0.00 71
20260502042731 64 318 1.0 3.0 0.00 0.00 0.00 70
20260502042227 64 354 1.0 3.0 0.00 0.00 0.00 70
20260502041749 64 341 0.0 2.0 0.00 0.00 0.00 70
20260502041229 64 341 0.0 0.0 0.00 0.00 0.00 69
20260502040749 65 341 0.0 2.0 0.00 0.00 0.00 69
20260502040246 65 341 1.0 2.0 0.00 0.00 0.00 69
20260502035748 65 341 0.0 1.0 0.00 0.00 0.00 68
20260502035245 65 341 0.0 2.0 0.00 0.00 0.00 68
20260502034727 66 4 0.0 2.0 0.00 0.00 0.00 67
20260502034252 66 348 0.0 3.0 0.00 0.00 0.00 67
20260502033733 66 348 1.0 5.0 0.00 0.00 0.00 67
20260502033307 66 328 3.0 5.0 0.00 0.00 0.00 66
20260502032729 66 314 0.0 1.0 0.00 0.00 0.00 66
20260502032224 67 310 0.0 1.0 0.00 0.00 0.00 66
20260502031725 67 310 0.0 0.0 0.00 0.00 0.00 65
20260502031230 67 310 0.0 0.0 0.00 0.00 0.00 65
20260502030754 67 310 0.0 2.0 0.00 0.00 0.00 65
20260502030243 67 310 0.0 4.0 0.00 0.00 0.00 64
20260502025746 68 323 2.0 4.0 0.00 0.00 0.00 63
20260502025243 68 291 2.0 5.0 0.00 0.00 0.00 63
20260502024727 68 307 2.0 5.0 0.00 0.00 0.00 62
20260502024243 69 280 3.0 5.0 0.00 0.00 0.00 61
20260502023744 69 297 3.0 5.0 0.00 0.00 0.00 60
20260502023246 70 320 2.0 5.0 0.00 0.00 0.00 60
20260502022725 70 308 2.0 6.0 0.00 0.00 0.00 59
20260502022248 70 312 2.0 6.0 0.00 0.00 0.00 59
20260502021730 71 304 2.0 5.0 0.00 0.00 0.00 58
20260502021244 71 305 3.0 5.0 0.00 0.00 0.00 57
20260502020806 71 314 3.0 7.0 0.00 0.00 0.00 57
20260502020224 72 331 2.0 5.0 0.00 0.00 0.00 56
20260502015746 72 328 2.0 6.0 0.00 0.00 0.00 56
20260502015246 72 295 2.0 7.0 0.00 0.00 0.00 56
20260502014728 72 309 4.0 10.0 0.00 0.00 0.00 56
20260502014226 73 332 6.0 10.0 0.00 0.00 0.00 54
20260502013748 73 331 4.0 7.0 0.00 0.00 0.00 53
20260502013226 73 308 4.0 8.0 0.00 0.00 0.00 52
20260502012747 74 264 4.0 8.0 0.00 0.00 0.00 52
20260502012248 74 316 4.0 8.0 0.00 0.00 0.00 51
20260502011729 74 290 5.0 8.0 0.00 0.00 0.00 50
20260502011228 75 310 4.0 8.0 0.00 0.00 0.00 50
20260502010748 75 265 5.0 8.0 0.00 0.00 0.00 49
20260502010243 76 328 4.0 7.0 0.00 0.00 0.00 48
20260502005746 76 337 2.0 7.0 0.00 0.00 0.00 49
20260502005248 76 324 4.0 9.0 0.00 0.00 0.00 49
20260502004731 76 308 5.0 8.0 0.00 0.00 0.00 49
20260502004303 77 307 4.0 9.0 0.00 0.00 0.00 48
20260502003803 77 291 5.0 10.0 0.00 0.00 0.00 47
20260502003223 78 280 5.0 10.0 0.00 0.00 0.00 46
20260502002746 78 298 3.0 10.0 0.00 0.00 0.00 47
20260502002225 78 312 3.0 9.0 0.00 0.00 0.00 46
20260502001726 79 247 4.0 10.0 0.00 0.00 0.00 46
20260502001245 79 263 6.0 10.0 0.00 0.00 0.00 45
20260502000807 80 306 4.0 10.0 0.00 0.00 0.00 45
20260502000250 79 212 3.0 11.0 0.00 0.00 0.00 45
20260501235733 79 308 5.0 11.0 0.00 0.00 0.00 45
20260501235306 79 310 6.0 11.0 0.00 0.00 0.00 45
20260501234725 80 320 7.0 11.0 0.00 0.00 0.00 45
20260501234243 81 326 7.0 11.0 0.00 0.00 0.00 43
20260501233746 81 282 5.0 11.0 0.00 0.00 0.00 44
20260501233229 82 319 6.0 12.0 0.00 0.00 0.00 42
20260501232748 82 256 7.0 11.0 0.00 0.00 0.00 42
20260501232249 82 258 5.0 10.0 0.00 0.00 0.00 43
20260501231730 83 311 5.0 11.0 0.00 0.00 0.00 42
20260501231243 83 330 7.0 11.0 0.00 0.00 0.00 41
20260501230725 84 238 4.0 9.0 0.00 0.00 0.00 41
20260501230230 84 287 4.0 9.0 0.00 0.00 0.00 42
20260501225729 84 324 4.0 11.0 0.00 0.00 0.00 41
20260501225229 84 291 5.0 11.0 0.00 0.00 0.00 41
20260501224730 85 312 6.0 10.0 0.00 0.00 0.00 41
20260501224236 84 276 5.0 8.0 0.00 0.00 0.00 42
20260501223758 85 308 3.0 8.0 0.00 0.00 0.00 41
20260501223244 85 225 4.0 9.0 0.00 0.00 0.00 42
20260501222747 85 218 4.0 9.0 0.00 0.00 0.00 42
20260501222228 85 239 3.0 11.0 0.00 0.00 0.00 43
20260501221731 84 191 4.0 12.0 0.00 0.00 0.00 43
20260501221247 84 310 6.0 12.0 0.00 0.00 0.00 43
20260501220729 84 305 6.0 13.0 0.00 0.00 0.00 44
20260501220235 83 264 5.0 14.0 0.00 0.00 0.00 44
20260501215723 83 294 7.0 14.0 0.00 0.00 0.00 44
20260501215224 83 232 5.0 11.0 0.00 0.00 0.00 44
20260501214810 82 270 5.0 10.0 0.00 0.00 0.00 45
20260501214246 82 324 5.0 10.0 0.00 0.00 0.00 45
20260501213728 83 333 6.0 10.0 0.00 0.00 0.00 43
20260501213227 83 333 4.0 9.0 0.00 0.00 0.00 45
20260501212725 83 283 6.0 9.0 0.00 0.00 0.00 43
20260501212234 84 27 4.0 8.0 0.00 0.00 0.00 42
20260501211734 84 259 4.0 8.0 0.00 0.00 0.00 44
20260501211242 84 284 5.0 8.0 0.00 0.00 0.00 43
20260501210738 83 294 3.0 9.0 0.00 0.00 0.00 44
20260501210228 84 292 5.0 9.0 0.00 0.00 0.00 43
20260501205729 83 276 3.0 11.0 0.00 0.00 0.00 45
20260501205245 82 278 4.0 11.0 0.00 0.00 0.00 47
20260501204724 81 317 4.0 6.0 0.00 0.00 0.00 47
20260501204236 80 245 2.0 5.0 0.00 0.00 0.00 49
20260501203737 79 149 3.0 6.0 0.00 0.00 0.00 48
20260501203234 79 324 2.0 8.0 0.00 0.00 0.00 49
20260501202730 78 187 2.0 8.0 0.00 0.00 0.00 50
20260501202230 78 253 2.0 6.0 0.00 0.00 0.00 51
20260501201731 77 271 1.0 7.0 0.00 0.00 0.00 50
20260501201222 78 169 3.0 7.0 0.00 0.00 0.00 51
20260501200725 77 115 2.0 4.0 0.00 0.00 0.00 52
20260501200248 76 91 2.0 7.0 0.00 0.00 0.00 52
20260501195730 76 115 3.0 7.0 0.00 0.00 0.00 52
20260501195227 76 254 2.0 5.0 0.00 0.00 0.00 52
20260501194729 75 158 2.0 7.0 0.00 0.00 0.00 53
20260501194242 75 285 2.0 7.0 0.00 0.00 0.00 53
20260501193741 75 121 3.0 7.0 0.00 0.00 0.00 54
20260501193310 74 61 3.0 5.0 0.00 0.00 0.00 56
20260501192729 73 40 3.0 7.0 0.00 0.00 0.00 56
20260501192245 73 62 3.0 6.0 0.00 0.00 0.00 57
20260501191806 72 337 3.0 6.0 0.00 0.00 0.00 58
20260501191224 72 107 3.0 7.0 0.00 0.00 0.00 57
20260501190746 72 143 4.0 8.0 0.00 0.00 0.00 58
20260501190225 72 131 4.0 8.0 0.00 0.00 0.00 58
20260501185726 72 131 3.0 6.0 0.00 0.00 0.00 58
20260501185226 71 243 2.0 9.0 0.00 0.00 0.00 60
20260501184727 71 130 3.0 9.0 0.00 0.00 0.00 60
20260501184249 70 125 4.0 6.0 0.00 0.00 0.00 60
20260501183751 70 8 4.0 7.0 0.00 0.00 0.00 61
20260501183253 70 46 3.0 8.0 0.00 0.00 0.00 60
20260501182727 70 85 3.0 7.0 0.00 0.00 0.00 62
20260501182246 69 309 2.0 7.0 0.00 0.00 0.00 62
20260501181747 69 29 3.0 8.0 0.00 0.00 0.00 62
20260501181231 69 118 3.0 8.0 0.00 0.00 0.00 63
20260501180732 68 226 2.0 4.0 0.00 0.00 0.00 63
20260501180236 68 217 3.0 4.0 0.00 0.00 0.00 63
20260501175732 68 141 2.0 4.0 0.00 0.00 0.00 65
20260501175307 67 247 2.0 4.0 0.00 0.00 0.00 66
20260501174745 67 194 2.0 4.0 0.00 0.00 0.00 67
20260501174228 66 89 2.0 5.0 0.00 0.00 0.00 67
20260501173729 66 179 3.0 5.0 0.00 0.00 0.00 67
20260501173225 66 237 2.0 5.0 0.00 0.00 0.00 69
20260501172727 66 240 3.0 5.0 0.00 0.00 0.00 69
20260501172244 65 221 2.0 5.0 0.00 0.00 0.00 71
20260501171746 65 253 2.0 5.0 0.00 0.00 0.00 72
20260501171229 64 287 1.0 5.0 0.00 0.00 0.00 72
20260501170730 64 202 3.0 5.0 0.00 0.00 0.00 73
20260501170239 64 218 3.0 5.0 0.00 0.00 0.00 73
20260501165722 63 109 1.0 5.0 0.00 0.00 0.00 74
20260501165224 63 91 2.0 4.0 0.00 0.00 0.00 74
20260501164747 63 49 1.0 3.0 0.00 0.00 0.00 75